Погода в Орлинге

Погода в Орлинге : погода сейчас, прогноз погоды и архив. Всё, что Вы хотите узнать о погоде в Орлинге!

Хотите узнать прогноз погоды в Орлинге? Тогда Вам сюда: Погода в Орлинге

Поиск расширенной информации на нашем сайте:

Другие новости

Новости СМИ2

Главная страница сайта

Новости сайта

03.07.2017

Напоминаем, что на нашем специализированном сайте Метеоцентр.Азия вы можете получить высокодетализированные автоматические прогнозы погоды по пунктам России, СНГ и мира в авиационном формате (включающие направление и скорость ветра, видимость, явления погоды, количество и форму облачности, нижнюю и верхнюю границу облачности).


Погода в Орлинге - сегодня

Время (UTC), дата Ветер
(°,м/с) 
Видим.   Явления Облачность Т
(°С)
Тd
(°С)
f(%) Тe
(°С)
Pmin
(гПа)
dP
(гПа)
Po
(мм)
O2
(г/м3)
Тmin Tmax R s Состояние
почвы
00 09.02.18 тихо ()   н/о  {снег}  3/0 верхняя 
[Cs]
-36.7 -38.8 81 -37  1046  3.3  747  350  -36.8    0.0  60  равномерный
сухой снег
100% 
12 09.02.18 тихо ()   н/о  в посл. час снег  6/0 верхняя 
[Cs]
-28.7 -31.9 74 -29  1043.8  -0.2  747  338    -25  0.0     
00 10.02.18 тихо ()   н/о  {снег}  4/0 средняя, верхняя 
[Ac lent|Ci fib]
-37.4 -40.1 76 -37  1046.9  0.9  748  351  -37.6    0.0  60  равномерный
сухой снег
100% 
12 10.02.18 тихо ()   н/о  слаб. снег  10/0 верхняя 
[Cs]
-26.4 -29.6 74 -26  1043.7  747  335    -24.9  0.2     
00 11.02.18 тихо ()   н/о  слаб. снег  10/0 средняя, верхняя 
[Ac lent|Cs]
-29.2 -31.6 80 -29  1042.2  -1.2  746  338  -29.2    0.6  60  равномерный
сухой снег
100% 
12 11.02.18 тихо ()   н/о    3/0 верхняя 
[Ci fib]
-24.6 -26.5 84 -25  1034.3  -3.3  740  330    -18.4  0.0     
00 12.02.18 тихо ()   н/о  слаб. снег  10/0 средняя, верхняя 
[As op|Cs]
-26.6 -28.4 85 -27  1028.4  -2.8  736  330  -28    0.6  61  равномерный
сухой снег
100% 
12 12.02.18 тихо ()   н/о  слаб. снег  10/0 средняя, верхняя 
[As op|Cs]
-21.5 -23.3 85 -22  1024.6  0.8  734  323    -15.5     
00 13.02.18 090 (В) н/о  слаб. снег  10/0 средняя, верхняя 
[Ac lent|Cs]
-29.6 -32 80 -30  1031.5  3.1  738  335  -29.8    0.8  61  равномерный
сухой снег
100% 
12 13.02.18 050 (СВ) н/о  слаб. снег  10/0 средняя, верхняя 
[As op|Cs]
-20.9 -22.8 85 -21  1028.5  -0.7  737  323    -11.7  0.3     
00 14.02.18 тихо ()   н/о  слаб. снег  10/0 средняя 
[Ac As]
-17.4 -20 80 -17  1023.3  -1.6  734  317  -20.9    62  равномерный
сухой снег
100% 
12 14.02.18 тихо ()   н/о  слаб. снег  10/0 средняя, верхняя 
[As op|Cs]
-17.9 -19.8 85 -18  1026.4  3.2  736  319    -13     
00 15.02.18 тихо ()   н/о  слаб. снег  10/0 средняя, верхняя 
[Ac trans|Cs]
-33.3 -35.6 80 -33  1035.2  2.5  740  342  -33.5    0.3  63  равномерный
сухой снег
100% 
12 15.02.18 тихо ()   н/о    ясно 
-26.8 -28.7 84 -27  1033.5  -0.8  740  332    -15.6  0.0     
00 16.02.18 тихо ()   н/о    3/0 средняя, верхняя 
[Ac lent|Ci fib]
-36.7 -38.8 81 -37  1035.2  -0.2  739  346  -36.8      63  равномерный
сухой снег
100% 
12 16.02.18 тихо ()   н/о    3/0 средняя, верхняя 
[Ac lent|Ci fib]
-26.1 -28.6 79 -26  1030.3  -0.5  737  330    -18.3       
00 17.02.18 320 (СЗ) н/о  слаб. снег  10/0 средняя, верхняя 
[As op|Cs]
-25 -27.4 80 -26  1033.5  2.3  740  330  -30.2    0.2  63  равномерный
сухой снег
100% 
12 17.02.18 тихо ()   н/о    10/3 1000 м верхняя 
[Sc|Cs]
-19 -20.9 85 -19  1035.3  1.1  742  323    -13.8  0.0     
00 18.02.18 тихо ()   н/о  слаб. снег  10/0 средняя, верхняя 
[As op|Cs]
-21.5 -23.3 85 -22  1036.4  -0.1  743  326  -22.1    0.6  63  равномерный
сухой снег
100% 
12 18.02.18 160 (Ю) н/о  слаб. снег  10/0 средняя, верхняя 
[Ac As|Cs]
-18.4 -20.3 85 -21  1035.1  0.3  742  322    -13.6  0.6     
00 19.02.18 140 (ЮВ) н/о  слаб. снег  10/0 средняя, верхняя 
[As op|Cs]
-25.1 -26.9 85 -26  1035.6  -0.7  741  331  -25.1    0.7  64  равномерный
сухой снег
100% 
12 19.02.18 090 (В) н/о  слаб. снег  10/4 1000 м средняя, верхняя 
[Sc|Ac As|Cs]
-15.1 -16.4 90 -15  1030.9  -0.6  739  317    -13.2  0.5     
00 20.02.18 тихо ()   н/о  слаб. снег  10/0 средняя 
[As op]
-18.4 -19.6 90 -18  1028.3  -2.2  737  320  -18.4    65  равномерный
сухой снег
100% 
12 20.02.18 320 (СЗ) 3{10}  н/о  {ливн. осадки}  8/3 600 м кучево-дожд., верхняя 
[Cb cap|Ci fib]
-12.4 -16.7 70 -16  1024.8  0.3  735  312    -9.9  0.4     
00 21.02.18 020 (С) 20000 м  {снег}  10/0 средняя, верхняя 
[As op|Cs]
-28.7 -30.6 84 -29  1029.7  0.5  737  334  -28.7    0.0  65  равномерный
сухой снег
100% 
Время (UTC), дата Ветер
(°,м/с) 
Видим.   Явления Облачность Т
(°С)
Тd
(°С)
f(%) Тe
(°С)
Pmin
(гПа)
dP
(гПа)
Po
(мм)
O2
(г/м3)
Тmin Tmax R s Состояние
почвы

Для получения пояснительной информации подведите курсор к названию столбца.

ПОГОДА в Орлинге - архив

Всё, что Вы хотите узнать о погоде в Орлинге - удобно и подробно!

Выберите нужную дату (начиная с 1 января 2015* года) и нажмите кнопку "Найти".
Будут отображены архивные сводки погоды по пункту Орлинга, начиная с указанной даты.


Отображать данные в формате CSV (для использования в таблицах Excel)


Внимание! Наш архив погоды предназначен исключительно для личного некоммерческого использования в познавательных целях. Если Вам необходимы официальные справки о состоянии погоды (для производственных, юридических, коммерческих и т.п. целей), обращайтесь в органы Росгидромета.

*Примечание: данная дата относится к архиву по метеостанциям СССР (Россия, СНГ, Балтия).
Архив по метеостанциям Зарубежной Европы и Азии (кроме Китая) хранится 10 дней, по другим регионам земного шара (Китай, Африка, Америка, Австралия, Океания) - 1 день.

Орлинга - район местоположения метеостанции


Название, широта, долгота, высота метеостанции:
Орлинга 56.1°ш. 105.8°д. 338 м над ур. моря [Российская Федерация]

Дополнительная информация

В oтличие oт бoльшинства пoгoдных сайтoв мы публикуем пoдрoбную метеoинфoрмацию в детальнoм прoфессиoнальнoм фoрмате.

Характеристики температуры и влажнoсти вoздуха измеряются на высoте 2 м в тени вдали oт зданий и деревьев.
Скoрoсть ветра измеряется на высoте 10 м (на урoвне рoста челoвека скoрoсть ветра ниже в 1.5-2 раза). Если метеoстанция нахoдится в гoрoде или в лесу, тo скoрoсть ветра занижена на 2-4 м/с пo сравнению с oткрытым местoм. Скoрoсть ветра над акватoриями крупных рек и oзёр, а также на вершинах хoлмoв на 2-5 м/с выше, чем в oбычных услoвиях.
Атмoсфернoе давление в разных тoчках местнoсти мoжет значительнo oтличаться oт давления на метеoстанции, в зависимoсти oт услoвий рельефа (при пoдъёме на 10 м давление пoнижается примернo на 1 мм рт.ст.).